Date,TemperatureHighF,TemperatureAvgF,TemperatureLowF,DewpointHighF,DewpointAvgF,DewpointLowF,HumidityHigh,HumidityAvg,HumidityLow,PressureMaxIn,PressureMinIn,WindSpeedMaxMPH,WindSpeedAvgMPH,GustSpeedMaxMPH,PrecipitationSumIn
2013-5-1,66.8,52.2,35.1,46.7,41.2,32.3,90,68,43,30.55,30.47,21,6,21,0.00
2013-5-2,75.1,68.0,60.1,47.3,42.4,38.9,48,40,31,30.30,30.26,17,6,17,0.00
2013-5-3,75.9,62.2,47.3,52.4,44.3,38.1,73,53,37,30.33,30.14,22,7,22,0.00
2013-5-4,78.9,62.2,47.9,54.6,42.9,33.3,86,54,21,30.15,29.90,22,4,22,0.00
2013-5-5,83.8,70.4,53.8,49.9,41.9,36.6,68,38,21,29.91,29.69,19,4,19,0.00
2013-5-6,77.6,62.4,48.5,57.8,50.7,44.9,90,67,40,29.96,29.80,10,2,10,0.00
2013-5-7,72.7,58.7,47.3,57.3,50.9,45.8,96,77,51,30.10,29.96,11,2,11,0.00
2013-5-8,65.8,54.9,45.8,56.4,50.7,44.6,98,86,70,30.19,30.09,12,2,12,0.00
2013-5-9,76.0,61.1,46.3,60.3,52.9,45.8,100,78,46,30.24,30.11,16,2,16,0.00
2013-5-10,79.5,65.9,51.5,61.6,55.1,48.1,90,70,46,30.24,30.14,10,1,10,0.00
2013-5-11,82.3,66.2,53.7,64.1,56.1,50.8,93,73,36,30.24,30.04,7,1,7,0.00
2013-5-12,71.4,62.8,58.0,62.6,57.8,54.9,94,84,67,30.17,30.11,11,1,12,0.00
2013-5-13,65.8,57.7,48.6,58.6,53.3,45.8,100,86,62,30.27,30.11,19,2,19,0.14
2013-5-14,65.0,55.2,45.8,49.3,44.6,37.7,96,70,39,30.28,30.14,16,3,16,0.00
2013-5-15,59.2,52.6,46.4,54.4,49.2,42.1,95,88,74,30.17,30.07,7,1,8,0.14
2013-5-16,59.7,54.1,49.7,55.7,52.5,48.6,99,94,80,30.07,30.00,10,1,10,0.11
2013-5-17,63.4,54.1,46.4,54.1,48.9,45.8,99,84,59,30.17,30.06,14,1,14,0.04
2013-5-18,59.4,53.3,49.5,55.1,50.7,46.7,97,91,81,30.34,30.17,7,1,8,0.04
2013-5-19,63.7,55.6,49.0,54.2,50.4,44.4,99,84,58,30.46,30.34,18,4,18,0.10
2013-5-20,69.1,54.9,41.5,54.1,46.5,33.8,98,76,42,30.38,29.98,11,3,11,0.00
2013-5-21,53.0,46.8,40.9,50.3,45.1,38.7,99,94,60,30.09,29.90,14,1,14,0.46
2013-5-22,48.6,43.7,39.3,48.0,43.3,38.8,99,98,97,30.08,30.03,12,2,12,0.36
2013-5-23,57.6,48.5,44.0,50.0,46.5,43.7,99,93,69,30.10,30.06,15,2,15,0.22
2013-5-24,59.7,51.0,46.5,51.9,48.2,46.5,100,91,70,30.16,30.06,11,2,14,0.38
2013-5-25,66.2,55.7,46.0,54.8,49.6,45.2,98,82,54,30.15,29.98,9,2,10,0.02
2013-5-26,61.6,55.3,49.7,54.9,51.7,47.4,100,88,69,30.10,30.01,16,2,16,0.36
2013-5-27,53.2,50.5,49.0,52.8,49.6,47.7,99,97,93,30.05,29.86,9,1,10,0.23
2013-5-31,58.0,56.0,53.4,49.4,48.8,48.3,83,77,73,30.30,30.28,5,2,5,0.00